NORTHEAST SUFFOLK  -  Winter Weather Advisory Winter Weather Advisory        NORTHERN NASSAU  -  Winter Weather Advisory Winter Weather Advisory        NORTHWEST SUFFOLK  -  Winter Weather Advisory Winter Weather Advisory        SOUTHEAST SUFFOLK  -  Winter Weather Advisory Winter Weather Advisory        SOUTHERN NASSAU  -  Winter Weather Advisory Winter Weather Advisory        SOUTHWEST SUFFOLK  -  Winter Weather Advisory Winter Weather Advisory      

Active alerts

Northern Nassau
  Details for Northern Nassau Winter Weather Advisory
Southern Nassau
  Details for Southern Nassau Winter Weather Advisory
Northwest Suffolk
  Details for Northwest Suffolk Winter Weather Advisory
Southwest Suffolk
  Details for Southwest Suffolk Winter Weather Advisory
Northeast Suffolk
  Details for Northeast Suffolk Winter Weather Advisory
Southeast Suffolk
  Details for Southeast Suffolk Winter Weather Advisory


WXM80 ListenWXM80 Stop

You find our weather info also at:

UK Metoffice

WeatherCloud

Weather Underground

Northeastern Weather Network

AWEKAS

Citizen Weather Observer Program (CWOP)

HAMweather, WeatherForYou, PWS Weather


Weather Underground History page Text

Daily Summary for January 4, 2017 Units:  Metric    English   Both
« Previous Day
Next Day »
Daily Weekly Monthly Yearly Custom
  High: Low: Average:
Temperature: 10.1 °C 1.9 °C 6.5 °C
Dew Point: 7.3 °C -8.2 °C 2.4 °C
Humidity: 98 % 42 % 78 %
Wind Speed: 24.1 km/h 0 km/h 8 km/h
Wind Gust: 46.7 km/h - -
Wind:- - WSW
Pressure: 1005 hPa 995.5 hPa -
Precipitation: 0.25 mm    
Historical Graphs
 
 
Tabular Data for January 4, 2017
Time Temperature Dew Point Pressure Wind Wind Speed Wind Gust Humidity Rainfall Rate (Hourly)
00:03 5.6 °C 5.3 °C 996.5 hPa WNW 5.8 km/h 46.7 km/h 98 % 0.25 mm
00:08 5.6 °C 5.3 °C 996.2 hPa WNW 5 km/h 46.7 km/h 98 % 0.25 mm
00:13 5.5 °C 5.2 °C 996.5 hPa WNW 4 km/h 46.7 km/h 98 % 0.25 mm
00:18 5.5 °C 5.2 °C 996.5 hPa WSW 1.3 km/h 46.7 km/h 98 % 0.25 mm
00:24 5.5 °C 5.2 °C 996.2 hPa WNW 2.6 km/h 46.7 km/h 98 % 0.25 mm
00:29 5.5 °C 5.2 °C 996.2 hPa WNW 4.7 km/h 46.7 km/h 98 % 0.25 mm
00:34 5.4 °C 5.2 °C 996.5 hPa West 2.1 km/h 46.7 km/h 98 % 0.25 mm
00:39 5.5 °C 5.2 °C 996.2 hPa WNW 1.9 km/h 46.7 km/h 98 % 0.25 mm
00:44 5.4 °C 5.2 °C 996.2 hPa West 6.4 km/h 46.7 km/h 98 % 0.25 mm
00:49 5.4 °C 5.2 °C 996.2 hPa West 1.6 km/h 46.7 km/h 98 % 0.25 mm
00:54 5.4 °C 5.2 °C 995.8 hPa Calm   8 km/h 98 % 0 mm
00:59 5.4 °C 5.2 °C 995.8 hPa WNW 3.5 km/h 46.7 km/h 98 % 0.25 mm
01:04 5.4 °C 5.1 °C 995.8 hPa WNW 1.6 km/h 4.8 km/h 98 % 0 mm
01:09 5.4 °C 5.1 °C 995.8 hPa WNW 3.5 km/h 46.7 km/h 98 % 0 mm
01:14 5.4 °C 5.1 °C 995.8 hPa Calm   4.8 km/h 98 % 0 mm
01:19 5.4 °C 5.1 °C 996.2 hPa WNW 1.6 km/h 3.2 km/h 98 % 0 mm
01:24 5.4 °C 5.1 °C 995.8 hPa WNW 1.6 km/h 4.8 km/h 98 % 0 mm
01:29 5.4 °C 5.1 °C 996.2 hPa WSW 11.3 km/h 19.3 km/h 98 % 0 mm
01:34 5.3 °C 5 °C 996.2 hPa WSW 4.8 km/h 19.3 km/h 98 % 0 mm
01:39 5.2 °C 4.9 °C 996.2 hPa WSW 4.8 km/h 12.9 km/h 98 % 0 mm
01:44 5.2 °C 4.9 °C 996.2 hPa WSW 8 km/h 11.3 km/h 98 % 0 mm
01:49 5.2 °C 4.9 °C 996.2 hPa West 1.6 km/h 12.9 km/h 98 % 0 mm
01:54 5.1 °C 4.8 °C 996.2 hPa WSW 6.1 km/h 46.7 km/h 98 % 0 mm
01:59 5.1 °C 4.8 °C 996.2 hPa WSW 4.3 km/h 46.7 km/h 98 % 0 mm
02:04 5.1 °C 4.8 °C 996.2 hPa West 1.9 km/h 46.7 km/h 98 % 0 mm
02:09 5.1 °C 4.8 °C 996.2 hPa West 6.6 km/h 46.7 km/h 98 % 0 mm
02:14 5.1 °C 4.8 °C 996.2 hPa WSW 5.1 km/h 46.7 km/h 98 % 0 mm
02:19 5 °C 4.7 °C 996.2 hPa WNW 3.5 km/h 46.7 km/h 98 % 0 mm
02:24 5 °C 4.7 °C 996.2 hPa West 4.5 km/h 46.7 km/h 98 % 0 mm
02:30 4.9 °C 4.7 °C 996.5 hPa SW 6.3 km/h 46.7 km/h 98 % 0 mm
02:35 4.9 °C 4.7 °C 996.2 hPa SW 1.8 km/h 46.7 km/h 98 % 0 mm
02:40 4.9 °C 4.7 °C 996.2 hPa SW 2.1 km/h 46.7 km/h 98 % 0 mm
02:45 4.9 °C 4.6 °C 996.2 hPa WNW 1 km/h 46.7 km/h 98 % 0 mm
02:50 4.9 °C 4.6 °C 996.2 hPa WNW 4.5 km/h 46.7 km/h 98 % 0 mm
02:55 4.9 °C 4.6 °C 995.8 hPa West 2.1 km/h 46.7 km/h 98 % 0 mm
03:00 4.8 °C 4.6 °C 995.5 hPa Calm   46.7 km/h 98 % 0 mm
03:05 4.8 °C 4.6 °C 995.8 hPa WSW 5 km/h 46.7 km/h 98 % 0 mm
03:10 4.8 °C 4.6 °C 996.2 hPa WSW 4.3 km/h 46.7 km/h 98 % 0 mm
03:15 4.8 °C 4.6 °C 996.2 hPa SW 4.3 km/h 46.7 km/h 98 % 0 mm
03:20 4.8 °C 4.6 °C 996.2 hPa SW 3.7 km/h 46.7 km/h 98 % 0 mm
03:25 4.8 °C 4.6 °C 995.8 hPa Calm   46.7 km/h 98 % 0 mm
03:30 4.8 °C 4.5 °C 996.2 hPa SW 1 km/h 46.7 km/h 98 % 0 mm
03:35 4.8 °C 4.6 °C 995.8 hPa SW 5.8 km/h 46.7 km/h 98 % 0 mm
03:40 4.8 °C 4.6 °C 995.8 hPa SW 0.8 km/h 46.7 km/h 98 % 0 mm
03:45 4.8 °C 4.5 °C 995.8 hPa SW 3.5 km/h 46.7 km/h 98 % 0 mm
03:50 4.8 °C 4.5 °C 995.8 hPa SW 0.6 km/h 46.7 km/h 98 % 0 mm
03:56 4.8 °C 4.5 °C 995.8 hPa SW 1 km/h 46.7 km/h 98 % 0 mm
04:01 4.8 °C 4.5 °C 995.8 hPa SW 2.1 km/h 46.7 km/h 98 % 0 mm
04:06 4.8 °C 4.6 °C 995.8 hPa SW 2.7 km/h 46.7 km/h 98 % 0 mm
04:11 4.8 °C 4.6 °C 996.2 hPa SW 1.9 km/h 46.7 km/h 98 % 0 mm
04:16 4.8 °C 4.6 °C 995.8 hPa SW 2.7 km/h 46.7 km/h 98 % 0 mm
04:21 4.8 °C 4.6 °C 996.2 hPa SW 1.8 km/h 46.7 km/h 98 % 0 mm
04:26 4.8 °C 4.6 °C 995.8 hPa SW 2.6 km/h 46.7 km/h 98 % 0 mm
04:31 4.9 °C 4.6 °C 996.2 hPa SW 2.1 km/h 46.7 km/h 98 % 0 mm
04:36 4.9 °C 4.6 °C 996.5 hPa SW 2.7 km/h 46.7 km/h 98 % 0 mm
04:41 4.9 °C 4.7 °C 996.2 hPa Calm   46.7 km/h 98 % 0 mm
04:46 4.9 °C 4.7 °C 996.2 hPa WSW 2.9 km/h 46.7 km/h 98 % 0 mm
04:51 4.9 °C 4.7 °C 995.8 hPa Calm   46.7 km/h 98 % 0 mm
04:56 5 °C 4.7 °C 995.8 hPa WSW 1.4 km/h 46.7 km/h 98 % 0 mm
05:02 5 °C 4.7 °C 995.8 hPa WSW 2.1 km/h 46.7 km/h 98 % 0 mm
05:07 5 °C 4.7 °C 995.8 hPa SSW 2.1 km/h 46.7 km/h 98 % 0 mm
05:12 5.1 °C 4.8 °C 995.8 hPa SSW 4.2 km/h 46.7 km/h 98 % 0 mm
05:17 5.1 °C 4.8 °C 995.8 hPa SSW 0.3 km/h 46.7 km/h 98 % 0 mm
05:27 5.1 °C 4.8 °C 995.8 hPa SW 4.8 km/h 46.7 km/h 98 % 0 mm
05:32 5.1 °C 4.8 °C 996.2 hPa SW 3.9 km/h 46.7 km/h 98 % 0 mm
05:37 5.2 °C 4.9 °C 996.2 hPa SW 3.1 km/h 46.7 km/h 98 % 0 mm
05:42 5.2 °C 4.9 °C 996.2 hPa SW 1.6 km/h 46.7 km/h 98 % 0 mm
05:47 5.2 °C 4.9 °C 996.2 hPa WSW 5.5 km/h 46.7 km/h 98 % 0 mm
05:52 5.2 °C 4.9 °C 996.5 hPa WSW 5.8 km/h 46.7 km/h 98 % 0 mm
05:57 5.3 °C 5 °C 996.5 hPa WSW 1.1 km/h 46.7 km/h 98 % 0 mm
06:02 5.3 °C 5 °C 996.5 hPa SW 3.5 km/h 46.7 km/h 98 % 0 mm
06:07 5.3 °C 5 °C 996.2 hPa SW 4.8 km/h 46.7 km/h 98 % 0 mm
06:12 5.3 °C 5 °C 996.2 hPa WSW 4.7 km/h 46.7 km/h 98 % 0 mm
06:18 5.3 °C 5 °C 996.2 hPa WSW 2.3 km/h 46.7 km/h 98 % 0 mm
06:28 5.3 °C 5.1 °C 996.5 hPa WSW 1.3 km/h 46.7 km/h 98 % 0 mm
06:33 5.3 °C 5.1 °C 996.2 hPa WSW 0.5 km/h 46.7 km/h 98 % 0 mm
06:38 5.3 °C 5.1 °C 996.2 hPa West 0.8 km/h 46.7 km/h 98 % 0 mm
06:43 5.3 °C 5.1 °C 996.5 hPa West 0.2 km/h 46.7 km/h 98 % 0 mm
06:48 5.3 °C 5.1 °C 996.5 hPa West 0.3 km/h 46.7 km/h 98 % 0 mm
06:53 5.3 °C 5.1 °C 996.5 hPa SW 2.3 km/h 46.7 km/h 98 % 0 mm
06:58 5.3 °C 5.1 °C 996.5 hPa West 2.9 km/h 46.7 km/h 98 % 0 mm
07:03 5.3 °C 5.1 °C 996.5 hPa Calm   46.7 km/h 98 % 0 mm
07:08 5.3 °C 5.1 °C 996.5 hPa SW 1 km/h 46.7 km/h 98 % 0 mm
07:13 5.3 °C 5.1 °C 996.5 hPa SW 4.7 km/h 46.7 km/h 98 % 0 mm
07:19 5.4 °C 5.1 °C 996.5 hPa SW 1.8 km/h 46.7 km/h 98 % 0 mm
07:24 5.4 °C 5.1 °C 996.5 hPa Calm   46.7 km/h 98 % 0 mm
07:29 5.4 °C 5.2 °C 996.8 hPa SW 3.4 km/h 46.7 km/h 98 % 0 mm
07:34 5.5 °C 5.2 °C 996.8 hPa SW 2.4 km/h 46.7 km/h 98 % 0 mm
07:39 5.5 °C 5.2 °C 997.2 hPa WSW 6.8 km/h 46.7 km/h 98 % 0 mm
07:44 5.6 °C 5.3 °C 997.2 hPa SSW 2.9 km/h 46.7 km/h 98 % 0 mm
07:49 5.6 °C 5.3 °C 996.8 hPa WSW 4.8 km/h 46.7 km/h 98 % 0 mm
07:54 5.6 °C 5.3 °C 996.8 hPa SW 5.3 km/h 46.7 km/h 98 % 0 mm
07:59 5.7 °C 5.4 °C 996.5 hPa WSW 4 km/h 46.7 km/h 98 % 0 mm
08:09 5.8 °C 5.5 °C 996.8 hPa SW 0.5 km/h 46.7 km/h 98 % 0 mm
08:14 5.8 °C 5.6 °C 996.8 hPa WSW 6 km/h 46.7 km/h 98 % 0 mm
08:19 5.9 °C 5.6 °C 997.2 hPa SSW 5.1 km/h 46.7 km/h 98 % 0 mm
08:24 5.9 °C 5.7 °C 997.2 hPa SSW 6.3 km/h 46.7 km/h 98 % 0 mm
08:30 6 °C 5.7 °C 997.2 hPa SW 6.8 km/h 46.7 km/h 98 % 0 mm
08:35 6.1 °C 5.8 °C 997.2 hPa SSW 6.1 km/h 46.7 km/h 98 % 0 mm
08:40 6.1 °C 5.8 °C 996.8 hPa WSW 3.9 km/h 46.7 km/h 98 % 0 mm
08:45 6.2 °C 5.9 °C 996.8 hPa WSW 7.2 km/h 46.7 km/h 98 % 0 mm
08:50 6.2 °C 5.9 °C 997.2 hPa West 6.4 km/h 46.7 km/h 98 % 0 mm
09:00 6.3 °C 6.1 °C 997.2 hPa SW 7.7 km/h 46.7 km/h 98 % 0 mm
09:05 6.4 °C 6.1 °C 997.2 hPa WSW 10.9 km/h 46.7 km/h 98 % 0 mm
09:10 6.5 °C 6.2 °C 997.2 hPa WSW 1.6 km/h 46.7 km/h 98 % 0 mm
09:15 6.6 °C 6.3 °C 997.2 hPa SSW 3.4 km/h 46.7 km/h 98 % 0 mm
09:20 6.7 °C 6.4 °C 997.2 hPa WSW 7.4 km/h 46.7 km/h 98 % 0 mm
09:25 6.8 °C 6.5 °C 997.2 hPa SW 5.6 km/h 46.7 km/h 98 % 0 mm
09:31 6.9 °C 6.6 °C 997.2 hPa SW 7.4 km/h 46.7 km/h 98 % 0 mm
09:36 7.1 °C 6.8 °C 997.2 hPa WSW 5.3 km/h 46.7 km/h 98 % 0 mm
09:41 7.2 °C 6.9 °C 997.5 hPa SSW 11.6 km/h 46.7 km/h 98 % 0 mm
09:46 7.3 °C 7 °C 997.5 hPa SW 7.1 km/h 46.7 km/h 98 % 0 mm
09:51 7.3 °C 7.1 °C 997.5 hPa South 5.3 km/h 46.7 km/h 98 % 0 mm
09:56 7.4 °C 6.9 °C 997.5 hPa WSW 8 km/h 46.7 km/h 97 % 0 mm
10:01 7.5 °C 7.1 °C 997.9 hPa West 10.8 km/h 46.7 km/h 97 % 0 mm
10:06 7.7 °C 7.1 °C 997.9 hPa SW 15.4 km/h 46.7 km/h 96 % 0 mm
10:11 7.8 °C 7 °C 997.5 hPa SW 7.7 km/h 46.7 km/h 95 % 0 mm
10:16 7.9 °C 7.1 °C 997.5 hPa SW 5.3 km/h 46.7 km/h 94 % 0 mm
10:21 8 °C 7.1 °C 997.5 hPa WSW 8 km/h 46.7 km/h 94 % 0 mm
10:26 8.1 °C 7.2 °C 997.5 hPa SW 6.3 km/h 46.7 km/h 94 % 0 mm
10:31 8.1 °C 6.8 °C 997.5 hPa West 12.6 km/h 46.7 km/h 92 % 0 mm
10:36 8.1 °C 6.8 °C 997.5 hPa SW 6.6 km/h 46.7 km/h 92 % 0 mm
10:42 8.1 °C 6.7 °C 997.5 hPa WSW 5.5 km/h 46.7 km/h 91 % 0 mm
10:47 8.2 °C 6.8 °C 997.2 hPa SW 6.6 km/h 46.7 km/h 91 % 0 mm
10:52 8.3 °C 6.9 °C 997.2 hPa West 7.4 km/h 46.7 km/h 91 % 0 mm
10:57 8.3 °C 6.9 °C 997.5 hPa West 7.7 km/h 46.7 km/h 91 % 0 mm
11:02 8.5 °C 7.1 °C 997.2 hPa SW 6.9 km/h 46.7 km/h 91 % 0 mm
11:07 8.7 °C 7.1 °C 997.2 hPa WSW 7.2 km/h 46.7 km/h 90 % 0 mm
11:12 8.8 °C 7.1 °C 997.2 hPa WNW 7.6 km/h 46.7 km/h 89 % 0 mm
11:17 8.9 °C 7 °C 997.2 hPa SW 8 km/h 46.7 km/h 88 % 0 mm
11:22 9.1 °C 7.3 °C 997.5 hPa SW 12.7 km/h 46.7 km/h 89 % 0 mm
11:27 9.2 °C 7.1 °C 997.5 hPa WSW 8.4 km/h 46.7 km/h 87 % 0 mm
11:37 9.2 °C 7 °C 997.5 hPa SW 10.3 km/h 46.7 km/h 86 % 0 mm
11:42 9.3 °C 7.1 °C 997.5 hPa SW 7.9 km/h 46.7 km/h 86 % 0 mm
11:47 9.3 °C 7.1 °C 997.2 hPa SW 12.9 km/h 46.7 km/h 86 % 0 mm
11:53 9.3 °C 6.9 °C 997.2 hPa West 10.5 km/h 46.7 km/h 85 % 0 mm
11:58 9.3 °C 6.9 °C 997.5 hPa West 12.1 km/h 46.7 km/h 85 % 0 mm
12:03 9.4 °C 7 °C 997.5 hPa West 7.4 km/h 46.7 km/h 85 % 0 mm
12:08 9.4 °C 6.9 °C 997.5 hPa WSW 13 km/h 46.7 km/h 84 % 0 mm
12:13 9.4 °C 6.9 °C 997.2 hPa West 13 km/h 46.7 km/h 84 % 0 mm
12:18 9.5 °C 6.9 °C 997.2 hPa WSW 10 km/h 46.7 km/h 84 % 0 mm
12:23 9.6 °C 6.8 °C 997.2 hPa WSW 5 km/h 46.7 km/h 83 % 0 mm
12:28 9.6 °C 7.1 °C 997.2 hPa WSW 11.1 km/h 46.7 km/h 84 % 0 mm
12:33 9.7 °C 6.9 °C 997.2 hPa WSW 11.6 km/h 46.7 km/h 83 % 0 mm
12:38 9.7 °C 6.7 °C 997.2 hPa WSW 11.6 km/h 46.7 km/h 82 % 0 mm
12:43 9.6 °C 6.7 °C 997.2 hPa SW 9.5 km/h 46.7 km/h 82 % 0 mm
12:48 9.6 °C 6.6 °C 997.2 hPa SW 10 km/h 46.7 km/h 82 % 0 mm
12:50 9.6 °C 6.6 °C 997.2 hPa West 5.6 km/h 46.7 km/h 82 % 0 mm
12:55 9.5 °C 6.6 °C 997.2 hPa West 14 km/h 46.7 km/h 82 % 0 mm
13:00 9.5 °C 6.8 °C 996.8 hPa SW 12.1 km/h 46.7 km/h 83 % 0 mm
13:05 9.4 °C 6.7 °C 996.8 hPa SSW 6.9 km/h 46.7 km/h 83 % 0 mm
13:10 9.4 °C 6.7 °C 996.8 hPa SW 4.8 km/h 46.7 km/h 83 % 0 mm
13:15 9.4 °C 6.7 °C 996.8 hPa SW 13.8 km/h 46.7 km/h 83 % 0 mm
13:20 9.3 °C 6.6 °C 996.8 hPa WSW 11.9 km/h 46.7 km/h 83 % 0 mm
13:30 9.3 °C 6.6 °C 996.5 hPa West 1.1 km/h 46.7 km/h 83 % 0 mm
13:35 9.4 °C 6.9 °C 996.5 hPa West 9.5 km/h 46.7 km/h 84 % 0 mm
13:41 9.6 °C 7 °C 996.8 hPa West 8.2 km/h 46.7 km/h 84 % 0 mm
13:46 9.7 °C 7.1 °C 996.8 hPa WSW 10.5 km/h 46.7 km/h 84 % 0 mm
13:51 9.7 °C 7 °C 996.8 hPa WNW 6.1 km/h 46.7 km/h 83 % 0 mm
13:56 9.8 °C 6.8 °C 996.8 hPa WSW 11.3 km/h 46.7 km/h 82 % 0 mm
14:01 9.8 °C 6.8 °C 997.2 hPa West 11.9 km/h 46.7 km/h 82 % 0 mm
14:06 9.8 °C 6.7 °C 996.8 hPa WSW 8.9 km/h 46.7 km/h 81 % 0 mm
14:11 9.9 °C 6.8 °C 996.8 hPa West 6.3 km/h 46.7 km/h 81 % 0 mm
14:16 9.9 °C 6.8 °C 996.8 hPa West 12.2 km/h 46.7 km/h 81 % 0 mm
14:21 9.9 °C 6.8 °C 997.2 hPa SW 6.3 km/h 46.7 km/h 81 % 0 mm
14:26 9.9 °C 6.6 °C 996.8 hPa WSW 10.3 km/h 46.7 km/h 80 % 0 mm
14:31 9.8 °C 6.6 °C 996.8 hPa SW 6.9 km/h 46.7 km/h 80 % 0 mm
14:36 9.9 °C 6.6 °C 996.8 hPa SW 7.7 km/h 46.7 km/h 80 % 0 mm
14:41 9.8 °C 6.4 °C 997.2 hPa West 7.7 km/h 46.7 km/h 79 % 0 mm
14:46 9.9 °C 6.4 °C 996.8 hPa West 12.1 km/h 46.7 km/h 79 % 0 mm
14:51 9.9 °C 6.2 °C 997.2 hPa NW 11.1 km/h 46.7 km/h 78 % 0 mm
14:57 9.9 °C 6.1 °C 997.2 hPa WSW 8.2 km/h 46.7 km/h 77 % 0 mm
15:02 9.9 °C 5.7 °C 996.8 hPa West 5.1 km/h 46.7 km/h 75 % 0 mm
15:07 9.9 °C 5.7 °C 996.8 hPa WSW 6.9 km/h 46.7 km/h 75 % 0 mm
15:12 10 °C 5.8 °C 996.8 hPa WSW 8.2 km/h 46.7 km/h 75 % 0 mm
15:17 10 °C 5.6 °C 996.8 hPa WSW 9.7 km/h 46.7 km/h 74 % 0 mm
15:22 10 °C 5.6 °C 996.8 hPa SW 9.7 km/h 46.7 km/h 74 % 0 mm
15:27 9.9 °C 5.3 °C 997.2 hPa WSW 11.1 km/h 46.7 km/h 73 % 0 mm
15:32 9.9 °C 5.3 °C 997.2 hPa WSW 12.2 km/h 46.7 km/h 73 % 0 mm
15:37 10 °C 5.4 °C 997.2 hPa WNW 10.3 km/h 46.7 km/h 73 % 0 mm
15:42 10 °C 5.2 °C 997.5 hPa WSW 4.3 km/h 46.7 km/h 72 % 0 mm
15:47 10.1 °C 5.2 °C 997.5 hPa WNW 6.8 km/h 46.7 km/h 72 % 0 mm
15:52 10.1 °C 4.7 °C 997.5 hPa NNE 13.7 km/h 46.7 km/h 69 % 0 mm
15:57 10.1 °C 4.4 °C 997.5 hPa WNW 5.6 km/h 46.7 km/h 68 % 0 mm
16:03 10.1 °C 4.4 °C 997.5 hPa West 6.6 km/h 46.7 km/h 68 % 0 mm
16:08 9.9 °C 4.1 °C 997.9 hPa West 11.6 km/h 46.7 km/h 67 % 0 mm
16:13 9.7 °C 2.6 °C 997.9 hPa WSW 6.9 km/h 46.7 km/h 61 % 0 mm
16:18 9.5 °C 1.2 °C 997.9 hPa West 11.9 km/h 46.7 km/h 56 % 0 mm
16:23 9.3 °C 0.7 °C 997.9 hPa West 11.9 km/h 46.7 km/h 55 % 0 mm
16:28 9.2 °C 0.6 °C 998.2 hPa West 13.5 km/h 46.7 km/h 55 % 0 mm
16:33 8.9 °C 0.1 °C 997.9 hPa WSW 12.1 km/h 46.7 km/h 54 % 0 mm
16:38 8.8 °C 0 °C 997.9 hPa WNW 14.3 km/h 46.7 km/h 54 % 0 mm
16:43 8.7 °C 0.2 °C 998.2 hPa SW 9 km/h 46.7 km/h 55 % 0 mm
16:48 8.6 °C 0.1 °C 998.2 hPa SW 12.9 km/h 46.7 km/h 55 % 0 mm
16:58 8.4 °C 0.1 °C 998.2 hPa West 8 km/h 46.7 km/h 56 % 0 mm
17:04 8.3 °C -0.2 °C 998.2 hPa WSW 11.9 km/h 46.7 km/h 55 % 0 mm
17:09 8.3 °C 0 °C 998.2 hPa WNW 7.6 km/h 46.7 km/h 56 % 0 mm
17:14 8.2 °C -0.1 °C 998.2 hPa WSW 12.6 km/h 46.7 km/h 56 % 0 mm
17:19 8.1 °C -0.2 °C 998.5 hPa WSW 10.9 km/h 46.7 km/h 56 % 0 mm
17:24 8.1 °C 0.1 °C 998.5 hPa WSW 8.7 km/h 46.7 km/h 57 % 0 mm
17:29 8 °C 0 °C 998.5 hPa WSW 4.8 km/h 46.7 km/h 57 % 0 mm
17:34 7.9 °C -0.3 °C 998.5 hPa WSW 7.6 km/h 46.7 km/h 56 % 0 mm
17:39 7.8 °C -0.7 °C 998.9 hPa WSW 11.7 km/h 46.7 km/h 55 % 0 mm
17:47 7.8 °C -0.9 °C 998.9 hPa WSW 14.5 km/h 46.7 km/h 54 % 0 mm
17:54 7.7 °C -0.8 °C 999.2 hPa SSW 7.9 km/h 46.7 km/h 55 % 0 mm
17:59 7.6 °C -0.6 °C 999.2 hPa West 7.4 km/h 46.7 km/h 56 % 0 mm
18:04 7.5 °C -0.5 °C 999.5 hPa WSW 6.1 km/h 46.7 km/h 57 % 0 mm
18:09 7.3 °C -0.6 °C 999.5 hPa WSW 6.9 km/h 46.7 km/h 57 % 0 mm
18:14 7.2 °C -0.7 °C 999.5 hPa WSW 9.7 km/h 16.1 km/h 57 % 0 mm
18:19 7.2 °C -0.6 °C 999.5 hPa WSW 4.8 km/h 22.5 km/h 58 % 0 mm
18:24 7.1 °C -0.7 °C 999.5 hPa WNW 8.4 km/h 46.7 km/h 58 % 0 mm
18:29 7 °C -0.7 °C 999.5 hPa WSW 9.7 km/h 24.1 km/h 58 % 0 mm
18:34 6.9 °C -1.2 °C 999.5 hPa NW 7.2 km/h 46.7 km/h 56 % 0 mm
18:39 6.9 °C -1.8 °C 999.5 hPa West 11.3 km/h 22.5 km/h 54 % 0 mm
18:44 6.9 °C -2.8 °C 999.9 hPa WSW 24.1 km/h 38.6 km/h 50 % 0 mm
18:49 7 °C -2.7 °C 999.9 hPa West 16.1 km/h 32.2 km/h 50 % 0 mm
18:54 6.9 °C -2.8 °C 999.9 hPa West 8 km/h 35.4 km/h 50 % 0 mm
18:59 6.9 °C -2.8 °C 999.9 hPa WNW 12.2 km/h 46.7 km/h 50 % 0 mm
19:04 6.8 °C -3.2 °C 1000.2 hPa West 11.3 km/h 25.7 km/h 49 % 0 mm
19:09 6.8 °C -3.2 °C 1000.2 hPa WSW 12.9 km/h 24.1 km/h 49 % 0 mm
19:14 6.7 °C -3.3 °C 1000.2 hPa SW 9.7 km/h 41.8 km/h 49 % 0 mm
19:19 6.7 °C -3.6 °C 1000.6 hPa WSW 9.7 km/h 22.5 km/h 48 % 0 mm
19:24 6.6 °C -3.4 °C 1000.6 hPa West 9.7 km/h 24.1 km/h 49 % 0 mm
19:29 6.5 °C -3.7 °C 1000.6 hPa West 11.3 km/h 19.3 km/h 48 % 0 mm
19:34 6.4 °C -3.5 °C 1000.6 hPa West 10.1 km/h 46.7 km/h 49 % 0 mm
19:39 6.3 °C -3.3 °C 1000.6 hPa WNW 9.7 km/h 19.3 km/h 50 % 0 mm
19:44 6.3 °C -3.4 °C 1000.6 hPa West 12.9 km/h 25.7 km/h 50 % 0 mm
19:49 6.2 °C -4.9 °C 1000.9 hPa WSW 14.8 km/h 46.7 km/h 45 % 0 mm
19:54 6.1 °C -5.6 °C 1000.9 hPa WSW 16.1 km/h 32.2 km/h 43 % 0 mm
19:59 5.9 °C -5.7 °C 1000.9 hPa West 11.1 km/h 46.7 km/h 43 % 0 mm
20:04 5.9 °C -5.4 °C 1001.2 hPa WSW 9.5 km/h 46.7 km/h 44 % 0 mm
20:09 5.8 °C -5.8 °C 1001.2 hPa WNW 8.5 km/h 46.7 km/h 43 % 0 mm
20:14 5.7 °C -5.7 °C 1001.2 hPa SW 12.7 km/h 46.7 km/h 44 % 0 mm
20:19 5.6 °C -6.1 °C 1001.2 hPa West 20 km/h 46.7 km/h 43 % 0 mm
20:25 5.4 °C -6.4 °C 1001.2 hPa SW 21.1 km/h 46.7 km/h 42 % 0 mm
20:30 5.3 °C -6.6 °C 1001.2 hPa WSW 19.8 km/h 46.7 km/h 42 % 0 mm
20:35 5.3 °C -6.3 °C 1001.6 hPa WSW 12.1 km/h 46.7 km/h 43 % 0 mm
20:40 5.2 °C -6.1 °C 1001.6 hPa WSW 12.6 km/h 46.7 km/h 44 % 0 mm
20:45 5.1 °C -5.9 °C 1001.6 hPa SW 10.1 km/h 46.7 km/h 45 % 0 mm
20:50 4.9 °C -6.6 °C 1001.6 hPa NW 13.8 km/h 46.7 km/h 43 % 0 mm
20:55 4.9 °C -6.9 °C 1001.9 hPa WNW 21.1 km/h 46.7 km/h 42 % 0 mm
21:00 4.8 °C -7.1 °C 1001.9 hPa WNW 17.7 km/h 46.7 km/h 42 % 0 mm
21:05 4.7 °C -6.9 °C 1001.9 hPa SW 12.4 km/h 46.7 km/h 43 % 0 mm
21:10 4.6 °C -6.7 °C 1002.3 hPa SW 18.5 km/h 46.7 km/h 44 % 0 mm
21:15 4.4 °C -6.5 °C 1002.3 hPa SW 15 km/h 46.7 km/h 45 % 0 mm
21:20 4.3 °C -6.3 °C 1002.3 hPa WSW 17.7 km/h 46.7 km/h 46 % 0 mm
21:25 4.2 °C -6.2 °C 1002.3 hPa SW 11.9 km/h 46.7 km/h 47 % 0 mm
21:31 4.1 °C -6.8 °C 1002.3 hPa WSW 19.5 km/h 46.7 km/h 45 % 0 mm
21:36 4 °C -7.2 °C 1002.6 hPa WSW 14.2 km/h 46.7 km/h 44 % 0 mm
21:41 3.9 °C -6.7 °C 1002.9 hPa SSW 16.7 km/h 46.7 km/h 46 % 0 mm
21:46 3.8 °C -7.4 °C 1002.9 hPa WSW 15 km/h 46.7 km/h 44 % 0 mm
21:51 3.6 °C -6.9 °C 1002.9 hPa SW 22.7 km/h 46.7 km/h 46 % 0 mm
21:56 3.5 °C -7.1 °C 1003.3 hPa WSW 19.6 km/h 46.7 km/h 46 % 0 mm
22:01 3.4 °C -6.8 °C 1003.3 hPa WSW 20.6 km/h 46.7 km/h 47 % 0 mm
22:06 3.3 °C -6.9 °C 1003.3 hPa WSW 9.2 km/h 46.7 km/h 47 % 0 mm
22:11 3.2 °C -7.1 °C 1003.3 hPa WSW 15.1 km/h 46.7 km/h 47 % 0 mm
22:16 3.2 °C -7.1 °C 1003.6 hPa WSW 14.2 km/h 46.7 km/h 47 % 0 mm
22:21 3.1 °C -7.4 °C 1003.6 hPa West 14.6 km/h 46.7 km/h 46 % 0 mm
22:26 3 °C -7.5 °C 1003.9 hPa WNW 12.4 km/h 46.7 km/h 46 % 0 mm
22:31 2.9 °C -7.6 °C 1003.9 hPa West 12.7 km/h 46.7 km/h 46 % 0 mm
22:36 2.8 °C -7.7 °C 1003.9 hPa West 9.3 km/h 46.7 km/h 46 % 0 mm
22:41 2.8 °C -7.7 °C 1004.3 hPa NW 16.7 km/h 46.7 km/h 46 % 0 mm
22:46 2.7 °C -8.1 °C 1004.3 hPa NW 19.5 km/h 46.7 km/h 45 % 0 mm
22:51 2.7 °C -8.1 °C 1004.3 hPa WSW 19.8 km/h 46.7 km/h 45 % 0 mm
22:57 2.6 °C -8.2 °C 1004.3 hPa SW 12.6 km/h 46.7 km/h 45 % 0 mm
23:02 2.6 °C -7.9 °C 1004.3 hPa WSW 12.7 km/h 46.7 km/h 46 % 0 mm
23:06 2.5 °C -7.9 °C 1004.3 hPa West 15.3 km/h 46.7 km/h 46 % 0 mm
23:12 2.4 °C -7.7 °C 1004.6 hPa WNW 13.7 km/h 46.7 km/h 47 % 0 mm
23:17 2.3 °C -7.6 °C 1004.6 hPa West 10.6 km/h 46.7 km/h 48 % 0 mm
23:22 2.3 °C -7.6 °C 1004.6 hPa WSW 11.6 km/h 46.7 km/h 48 % 0 mm
23:27 2.3 °C -7.3 °C 1004.6 hPa WSW 11.4 km/h 46.7 km/h 49 % 0 mm
23:32 2.2 °C -7.7 °C 1005 hPa WNW 12.2 km/h 46.7 km/h 48 % 0 mm
23:37 2.2 °C -7.7 °C 1004.6 hPa West 21.2 km/h 46.7 km/h 48 % 0 mm
23:42 2.1 °C -7.5 °C 1004.6 hPa WNW 16.4 km/h 46.7 km/h 49 % 0 mm
23:52 2 °C -7.3 °C 1005 hPa West 14.8 km/h 46.7 km/h 50 % 0 mm
23:57 1.9 °C -7.4 °C 1004.6 hPa WSW 10.3 km/h 46.7 km/h 50 % 0 mm
Crab Meadow Weather
Compliments of Weather Underground - 3 mb

Script developed by  Jim McMurry - jmcmurry@mwt.net Adapted for the template by  Wim van der Kuil - Leuven-Template.eu

Weather Terms: Hail - Precipitation in the form of lumps of ice that form during some thunderstorms.